Tillbaka till svenska Fidonet
English   Information   Debug  
FILM   0/18
FNEWS_PUBLISH   4881
FN_SYSOP   42085
FN_SYSOP_OLD1   71952
FTP_FIDO   0/2
FTSC_PUBLIC   0/13950
FUNNY   0/4886
GENEALOGY.EUR   0/71
GET_INFO   105
GOLDED   0/408
HAM   0/16617
HOLYSMOKE   0/6791
HOT_SITES   0/1
HTMLEDIT   0/71
HUB203   466
HUB_100   264
HUB_400   39
HUMOR   0/29
IC   0/2851
INTERNET   0/424
INTERUSER   0/3
IP_CONNECT   719
JAMNNTPD   0/233
JAMTLAND   0/47
KATTY_KORNER   0/41
LAN   0/16
LINUX-USER   0/19
LINUXHELP   0/1155
LINUX   0/22287
LINUX_BBS   0/957
mail   18.68
mail_fore_ok   249
MENSA   0/341
MODERATOR   0/102
MONTE   0/992
MOSCOW_OKLAHOMA   0/1245
MUFFIN   0/783
MUSIC   0/321
N203_STAT   938
N203_SYSCHAT   313
NET203   321
NET204   69
NET_DEV   0/10
NORD.ADMIN   0/101
NORD.CHAT   0/2572
NORD.FIDONET   189
NORD.HARDWARE   0/28
NORD.KULTUR   0/114
NORD.PROG   0/32
NORD.SOFTWARE   0/88
NORD.TEKNIK   0/58
NORD   0/453
OCCULT_CHAT   0/93
OS2BBS   0/787
OS2DOSBBS   0/580
OS2HW   0/42
OS2INET   0/37
OS2LAN   0/134
OS2PROG   0/36
OS2REXX   0/113
OS2USER-L   207
OS2   0/4829
OSDEBATE   0/18996
PASCAL   0/490
PERL   0/457
PHP   0/45
POINTS   0/405
POLITICS   0/29554
POL_INC   0/14731
PSION   103
R20_ADMIN   1133
R20_AMATORRADIO   0/2
R20_BEST_OF_FIDONET   16
R20_CHAT   0/896
R20_DEPP   0/3
R20_DEV   400
R20_ECHO2   1789
R20_ECHOPRES   0/35
R20_ESTAT   0/719
R20_FIDONETPROG...
...RAM.MYPOINT
  0/2
R20_FIDONETPROGRAM   0/22
R20_FIDONET   0/248
R20_FILEFIND   0/24
R20_FILEFOUND   0/22
R20_HIFI   0/3
R20_INFO2   3681
R20_INTERNET   0/12940
R20_INTRESSE   0/60
R20_INTR_KOM   0/99
R20_KANDIDAT.CHAT   42
R20_KANDIDAT   28
R20_KOM_DEV   112
R20_KONTROLL   0/13360
R20_KORSET   0/18
R20_LOKALTRAFIK   0/24
R20_MODERATOR   0/1852
R20_NC   76
R20_NET200   245
R20_NETWORK.OTH...
...ERNETS
  0/13
R20_OPERATIVSYS...
...TEM.LINUX
  0/44
R20_PROGRAMVAROR   0/1
R20_REC2NEC   534
R20_SFOSM   0/341
R20_SF   0/108
R20_SPRAK.ENGLISH   0/1
R20_SQUISH   107
R20_TEST   2
R20_WORST_OF_FIDONET   20
RAR   0/9
RA_MULTI   106
RA_UTIL   0/162
REGCON.EUR   0/2067
REGCON   0/13
SCIENCE   0/1206
SF   0/239
SHAREWARE_SUPPORT   0/5146
SHAREWRE   0/14
SIMPSONS   0/169
STATS_OLD1   0/2539.065
STATS_OLD2   0/2530
STATS_OLD3   0/2395.095
STATS_OLD4   0/1692.25
SURVIVOR   0/495
SYSOPS_CORNER   0/3
SYSOP   0/84
TAGLINES   0/112
TEAMOS2   0/4530
TECH   0/2617
TEST.444   0/105
TRAPDOOR   0/19
TREK   0/755
TUB   0/290
UFO   0/40
UNIX   0/1316
USA_EURLINK   0/102
USR_MODEMS   0/1
VATICAN   0/2740
VIETNAM_VETS   0/14
VIRUS   0/378
VIRUS_INFO   0/201
VISUAL_BASIC   0/473
WHITEHOUSE   0/5187
WIN2000   0/101
WIN32   0/30
WIN95   0/4291
WIN95_OLD1   0/70272
WINDOWS   0/1517
WWB_SYSOP   0/419
WWB_TECH   0/810
ZCC-PUBLIC   0/1
ZEC   4

 
4DOS   0/134
ABORTION   0/7
ALASKA_CHAT   0/506
ALLFIX_FILE   0/1313
ALLFIX_FILE_OLD1   0/7997
ALT_DOS   0/152
AMATEUR_RADIO   0/1039
AMIGASALE   0/14
AMIGA   0/331
AMIGA_INT   0/1
AMIGA_PROG   0/20
AMIGA_SYSOP   0/26
ANIME   0/15
ARGUS   0/924
ASCII_ART   0/340
ASIAN_LINK   0/651
ASTRONOMY   0/417
AUDIO   0/92
AUTOMOBILE_RACING   0/105
BABYLON5   0/17862
BAG   135
BATPOWER   0/361
BBBS.ENGLISH   0/382
BBSLAW   0/109
BBS_ADS   0/5290
BBS_INTERNET   0/507
BIBLE   0/3563
BINKD   0/1119
BINKLEY   0/215
BLUEWAVE   0/2173
CABLE_MODEMS   0/25
CBM   0/46
CDRECORD   0/66
CDROM   0/20
CLASSIC_COMPUTER   0/378
COMICS   0/15
CONSPRCY   0/899
COOKING   41026
COOKING_OLD1   0/24719
COOKING_OLD2   0/40862
COOKING_OLD3   0/37489
COOKING_OLD4   0/35496
COOKING_OLD5   9370
C_ECHO   0/189
C_PLUSPLUS   0/31
DIRTY_DOZEN   0/201
DOORGAMES   0/2253
DOS_INTERNET   0/196
duplikat   6102
ECHOLIST   0/18295
EC_SUPPORT   0/318
ELECTRONICS   0/359
ELEKTRONIK.GER   1534
ENET.LINGUISTIC   0/13
ENET.POLITICS   0/4
ENET.SOFT   0/11701
ENET.SYSOP   34255
ENET.TALKS   0/32
ENGLISH_TUTOR   0/2000
EVOLUTION   0/1335
FDECHO   0/217
FDN_ANNOUNCE   0/7068
FIDONEWS   24978
FIDONEWS_OLD1   0/49742
FIDONEWS_OLD2   0/35949
FIDONEWS_OLD3   0/30874
FIDONEWS_OLD4   0/37224
FIDO_SYSOP   12920
FIDO_UTIL   0/180
FILEFIND   0/209
FILEGATE   0/212
Möte HAM, 16617 texter
 lista första sista föregående nästa
Text 471, 778 rader
Skriven 2005-07-01 02:16:34 av Amsat List (1:323/120.0)
Ärende: 
========
SB KEPS @ AMSAT  $ORB05181.O
Orbital Elements  05181.OSCAR

HR AMSAT ORBITAL ELEMENTS FOR OSCAR SATELLITES
FROM WA5QGD FORT WORTH,TX June 30, 2005
Send SUBSCRIBE KEPS/UNSUBSCRIBE KEPS to majordomo@amsat.org only
BID: ORB05181.O
TO ALL RADIO AMATEURS BT

Satellite: AO-07
Catalog number: 07530
Epoch time:      05181.71903847
Element set:     443
Inclination:      101.6228 deg
RA of node:       227.6315 deg
Eccentricity:    0.0011966
Arg of perigee:   208.0689 deg
Mean anomaly:     151.9739 deg
Mean motion:   12.53570713 rev/day
Decay rate:       -2.8e-07 rev/day^2
Epoch rev:           40134
Checksum:              292

Satellite: AO-10
Catalog number: 14129
Epoch time:      05176.39871582
Element set:     192
Inclination:      027.3659 deg
RA of node:       025.9786 deg
Eccentricity:    0.6029931
Arg of perigee:   200.0135 deg
Mean anomaly:     119.2013 deg
Mean motion:   02.05864535 rev/day
Decay rate:        6.4e-07 rev/day^2
Epoch rev:           16570
Checksum:              297

Satellite: UO-11
Catalog number: 14781
Epoch time:      05181.53459894
Element set:     818
Inclination:      098.2005 deg
RA of node:       179.3734 deg
Eccentricity:    0.0008242
Arg of perigee:   321.5508 deg
Mean anomaly:     038.5102 deg
Mean motion:   14.79259954 rev/day
Decay rate:       -9.7e-07 rev/day^2
Epoch rev:           14377
Checksum:              324

Satellite: RS-10/11
Catalog number: 18129
Epoch time:      05181.21619172
Element set:     725
Inclination:      082.9252 deg
RA of node:       228.4923 deg
Eccentricity:    0.0011888
Arg of perigee:   359.7059 deg
Mean anomaly:     000.4084 deg
Mean motion:   13.72760866 rev/day
Decay rate:        5.9e-07 rev/day^2
Epoch rev:           90286
Checksum:              316

Satellite: FO-20
Catalog number: 20480
Epoch time:      05180.85965656
Element set:     942
Inclination:      099.0194 deg
RA of node:       352.6695 deg
Eccentricity:    0.0539874
Arg of perigee:   210.8020 deg
Mean anomaly:     146.0347 deg
Mean motion:   12.83347001 rev/day
Decay rate:       -4.9e-07 rev/day^2
Epoch rev:           72112
Checksum:              304

Satellite: RS-12/13
Catalog number: 21089
Epoch time:      05180.32654008
Element set:     952
Inclination:      082.9215 deg
RA of node:       261.8738 deg
Eccentricity:    0.0030668
Arg of perigee:   047.7861 deg
Mean anomaly:     312.5878 deg
Mean motion:   13.74451815 rev/day
Decay rate:        4.8e-07 rev/day^2
Epoch rev:           72216
Checksum:              317

Satellite: RS-15
Catalog number: 23439
Epoch time:      05178.16051974
Element set:     871
Inclination:      064.8190 deg
RA of node:       091.4200 deg
Eccentricity:    0.0164871
Arg of perigee:   314.6899 deg
Mean anomaly:     044.0692 deg
Mean motion:   11.27551830 rev/day
Decay rate:       -3.9e-07 rev/day^2
Epoch rev:           43251
Checksum:              305

Satellite: FO-29
Catalog number: 24278
Epoch time:      05181.59521482
Element set:     987
Inclination:      098.5427 deg
RA of node:       229.3523 deg
Eccentricity:    0.0351282
Arg of perigee:   141.4784 deg
Mean anomaly:     221.1994 deg
Mean motion:   13.52914251 rev/day
Decay rate:        2.0e-07 rev/day^2
Epoch rev:           43800
Checksum:              309

Satellite: SO-33
Catalog number: 25509
Epoch time:      05181.25688652
Element set:     405
Inclination:      031.4343 deg
RA of node:       318.7266 deg
Eccentricity:    0.0355835
Arg of perigee:   280.3613 deg
Mean anomaly:     075.7092 deg
Mean motion:   14.28018942 rev/day
Decay rate:       4.53e-06 rev/day^2
Epoch rev:           34869
Checksum:              317

Satellite: AO-40
Catalog number: 26609
Epoch time:      05178.47937209
Element set:     568
Inclination:      007.7643 deg
RA of node:       295.9569 deg
Eccentricity:    0.7927622
Arg of perigee:   053.7690 deg
Mean anomaly:     355.5306 deg
Mean motion:   01.25584733 rev/day
Decay rate:       -9.2e-07 rev/day^2
Epoch rev:            2139
Checksum:              348

Satellite: VO-52
Catalog number: 28650
Epoch time:      05181.32180749
Element set:      63
Inclination:      097.9083 deg
RA of node:       254.8707 deg
Eccentricity:    0.0028623
Arg of perigee:   066.3730 deg
Mean anomaly:     294.0451 deg
Mean motion:   14.80866134 rev/day
Decay rate:       4.30e-06 rev/day^2
Epoch rev:             830
Checksum:              295

/EX
SB KEPS @ AMSAT  $ORB05181.D
Orbital Elements  05181.MICROS

HR AMSAT ORBITAL ELEMENTS FOR THE MICROSATS
FROM WA5QGD FORT WORTH,TX June 30, 2005
Send SUBSCRIBE KEPS/UNSUBSCRIBE KEPS to majordomo@amsat.org only
BID: ORB05181.D
TO ALL RADIO AMATEURS BT

Satellite: UO-14
Catalog number: 20437
Epoch time:      05180.84559253
Element set:     814
Inclination:      098.1913 deg
RA of node:       189.8588 deg
Eccentricity:    0.0011237
Arg of perigee:   151.6583 deg
Mean anomaly:     208.5210 deg
Mean motion:   14.31416809 rev/day
Decay rate:       -7.0e-08 rev/day^2
Epoch rev:           80584
Checksum:              310

Satellite: AO-16
Catalog number: 20439
Epoch time:      05180.56826990
Element set:     498
Inclination:      098.2040 deg
RA of node:       205.0397 deg
Eccentricity:    0.0010867
Arg of perigee:   160.3306 deg
Mean anomaly:     199.8298 deg
Mean motion:   14.31680950 rev/day
Decay rate:        8.0e-08 rev/day^2
Epoch rev:           80586
Checksum:              325

Satellite: WO-18
Catalog number: 20441
Epoch time:      05180.85183801
Element set:     696
Inclination:      098.2138 deg
RA of node:       209.7114 deg
Eccentricity:    0.0011679
Arg of perigee:   159.4485 deg
Mean anomaly:     200.7171 deg
Mean motion:   14.31753927 rev/day
Decay rate:        2.0e-07 rev/day^2
Epoch rev:           80596
Checksum:              305

